User: anonymous   Login
Location: Unspecified
(0.0000°N, 0.0000°E)
Time: 09:23:54
(UTC+00:00)
Language:

OAO 1 - Orbit

View from above orbital plane
View from above orbital plane
View from above satellite
View from above satellite

Ground track
Ground track

The orbit data is extracted from the following two-line orbital elements,

1  2142U 66031A   17086.25935440 -.00000001 +00000-0 +64717-5 0  9991
2  2142 035.0469 008.5793 0007214 184.0579 176.0050 14.33864803667646
Epoch (UTC): 27 March 2017 06:13:28
Eccentricity: 0.0007214
inclination: 35.0469°
perigee height: 773 km
apogee height: 784 km
right ascension of ascending node: 8.5793°
argument of perigee: 184.0579°
revolutions per day: 14.33864803
mean anomaly at epoch: 176.0050°
orbit number at epoch: 66764

The dashed part of the orbit path shows where the satellite is in the earth's shadow,  

DLR